Location: Brissac
(47.3500°N, 0.4500°W)
Time: 14:04:12
(UTC+02:00)

ISS - Pass Details

Date: 19 May 2021
Orbit: 419 x 422 km, 51.6° (Epoch: 25 June)

Event Time Altitude Azimuth Distance (km) Brightness Sun altitude
Rises 23:32:03 0° 271° (W) 2,368 0.6 -15.1°
Reaches altitude 10° 23:34:13 10° 278° (W) 1,506 -0.3 -15.3°
Maximum altitude 23:37:27 42° 351° (N) 618 -2.4 -15.6°
Drops below altitude 10° 23:40:42 10° 64° (ENE) 1,509 -1.0 -15.9°
Enters shadow 23:42:43 - 71° (ENE) 2,310 -0.1 -16.1°
